This is the latest recevied weather packets stored in our database for station/object KB2FWP. If no packets are shown the sender has not sent any weather packets the latest 10 day(s).
| Time | Temp. | Humidity | Pressure | Rain* | Wind** | Luminosity | Snow |
|---|---|---|---|---|---|---|---|
| 1777419908 | 11.67° C | 69% | 1020.1 hPa | 0 mm | - | - | - |
| 1777419008 | 11.67° C | 69% | 1019.9 hPa | 0 mm | - | - | - |
| 1777418111 | 11.67° C | 68% | 1020.1 hPa | 0 mm | - | - | - |
| 1777417212 | 11.67° C | 68% | 1019.9 hPa | 0 mm | - | - | - |
| 1777416306 | 12.22° C | 69% | 1020 hPa | 0 mm | - | - | - |
| 1777415405 | 12.22° C | 70% | 1019.9 hPa | 0 mm | - | - | - |
| 1777414504 | 12.22° C | 70% | 1020.2 hPa | 0 mm | - | - | - |
| 1777413603 | 12.22° C | 72% | 1020.1 hPa | 0 mm | - | - | - |
| 1777412702 | 12.22° C | 75% | 1020.2 hPa | 0 mm | - | - | - |
| 1777411861 | 12.78° C | 75% | 1020.1 hPa | 0 mm | - | - | - |
| 1777410960 | 13.33° C | 76% | 1020.1 hPa | 0 mm | - | - | - |
| 1777410060 | 13.89° C | 56% | 1020.4 hPa | 0 mm | - | - | - |
| 1777409177 | 13.89° C | 57% | 1020.5 hPa | 0 mm | - | - | - |
| 1777408255 | 14.44° C | 56% | 1020.7 hPa | 0 mm | - | - | - |
| 1777407353 | 14.44° C | 57% | 1020.9 hPa | 0 mm | - | - | - |
| 1777406456 | 15° C | 56% | 1020.9 hPa | 0 mm | - | - | - |
| 1777405551 | 15.56° C | 55% | 1021 hPa | 0 mm | - | - | - |
| 1777404647 | 15.56° C | 54% | 1021.6 hPa | 0 mm | - | - | - |
| 1777403750 | 15.56° C | 54% | 1021.8 hPa | 0 mm | - | - | - |
| 1777402854 | 16.11° C | 54% | 1021.9 hPa | 0 mm | - | - | - |
| 1777401943 | 15.56° C | 53% | 1022 hPa | 0 mm | - | - | - |
| 1777401045 | 15.56° C | 55% | 1022.3 hPa | 0 mm | - | - | - |
| 1777400139 | 15.56° C | 54% | 1022.5 hPa | 0 mm | - | - | - |
| 1777399251 | 15.56° C | 53% | 1022.4 hPa | 0 mm | - | - | - |
| 1777398337 | 16.11° C | 51% | 1022.5 hPa | 0 mm | - | - | - |
* Rain latest hour (hover to see other rain measurements)
** Current wind speed in m/s (hover to see current wind gust speed)